This demonstration page uses our WeatherBlox Daily Observations layout. Learn more.

41.55636, -103.73856

Hourly Observations for October 9, 2016

Temp ( °F °C ) Dew Point ( °F °C ) Humidity (%) Winds ( mph kmh ) Pressure ( in mb ) Visibility ( mi km ) Precip ( " mm )
12:53 am 00:53 Clear 49 9.4 37 2.8 64 64 ESE 10 17 30.15 1021 10 16.0934 0 0
1:53 am 01:53 Clear 48 8.9 38 3.3 68 68 E 12 19 30.15 1021 10 16.0934 0 0
2:53 am 02:53 Clear 46 7.8 38 3.3 73 73 ESE 10 17 30.14 1021 10 16.0934 0 0
3:53 am 03:53 Clear 44 6.7 38 3.3 79 79 E 10 17 30.13 1020 10 16.0934 0 0
4:53 am 04:53 Clear 42 5.6 37 2.8 82 82 ESE 8 13 30.12 1020 10 16.0934 0 0
5:53 am 05:53 Clear 42 5.6 37 2.8 82 82 E 8 13 30.14 1021 10 16.0934 0 0
6:53 am 06:53 Clear 40 4.4 37 2.8 89 89 ESE 8 13 30.18 1022 10 16.0934 0 0
7:53 am 07:53 Sunny 42 5.6 39 3.9 89 89 E 5 7 30.19 1022 10 16.0934 0 0
8:53 am 08:53 Sunny 47 8.3 39 3.9 74 74 ESE 7 11 30.17 1022 10 16.0934 0 0
9:53 am 09:53 Sunny 53 11.7 40 4.4 61 61 SE 7 11 30.14 1021 10 16.0934 0 0
10:53 am 10:53 Sunny 61 16.1 39 3.9 44 44 SE 12 19 30.08 1019 10 16.0934 0 0
11:53 am 11:53 Sunny 69 20.6 41 5 36 36 SE 10 17 30.02 1017 10 16.0934 0 0
12:53 pm 12:53 Sunny 77 25 40 4.4 26 26 SE 10 17 29.97 1015 10 16.0934 0 0
1:53 pm 13:53 Sunny 81 27.2 27 -2.8 14 14 undefined N/A 29.92 1013 10 16.0934 0 0
2:53 pm 14:53 Sunny 83 28.3 25 -3.9 12 12 S 7 11 29.9 1013 10 16.0934 0 0
3:53 pm 15:53 Sunny 83 28.3 25 -3.9 12 12 VRB 7 11 29.89 1012 10 16.0934 0 0
4:53 pm 16:53 Sunny 82 27.8 25 -3.9 12 12 E 3 6 29.89 1012 10 16.0934 0 0
5:53 pm 17:53 Sunny 76 24.4 29 -1.7 18 18 SSE 9 15 29.91 1013 10 16.0934 0 0
6:53 pm 18:53 Clear 62 16.7 39 3.9 43 43 undefined N/A 29.96 1014 10 16.0934 0 0
7:53 pm 19:53 Clear 56 13.3 38 3.3 51 51 E 8 13 29.98 1015 10 16.0934 0 0
8:53 pm 20:53 Clear 57 13.9 41 5 55 55 E 8 13 29.98 1015 10 16.0934 0 0
9:53 pm 21:53 Clear 54 12.2 41 5 62 62 E 10 17 29.97 1015 10 16.0934 0 0
10:53 pm 22:53 Clear 52 11.1 42 5.6 69 69 E 8 13 29.95 1014 10 16.0934 0 0
11:53 pm 23:53 Clear 48 8.9 41 5 77 77 E 5 7 29.93 1014 10 16.0934 0 0

Powered by AerisWeather